TimeEST,TemperatureF,Dew PointF,Humidity,Sea Level PressureIn,VisibilityMPH,Wind Direction,Wind SpeedMPH,Gust SpeedMPH,PrecipitationIn,Events,Conditions,WindDirDegrees,DateUTC
12:00 AM,26.6,17.6,69,30.63,25.0,NE,3.5,-,N/A,,Overcast,40,2012-11-19 05:00:00
1:00 AM,24.8,17.6,74,30.61,25.0,NNE,3.5,-,N/A,,Mostly Cloudy,20,2012-11-19 06:00:00
2:00 AM,23.0,15.8,74,30.61,25.0,NNE,3.5,-,N/A,,Mostly Cloudy,20,2012-11-19 07:00:00
3:00 AM,21.2,15.8,80,30.60,25.0,ENE,2.3,-,N/A,,Scattered Clouds,60,2012-11-19 08:00:00
4:00 AM,23.0,15.8,74,30.57,25.0,NNE,4.6,-,N/A,,Scattered Clouds,20,2012-11-19 09:00:00
5:00 AM,21.2,15.8,80,30.58,25.0,NNE,2.3,-,N/A,,Partly Cloudy,20,2012-11-19 10:00:00
6:00 AM,17.6,14.0,86,30.57,25.0,NE,3.5,-,N/A,,Partly Cloudy,40,2012-11-19 11:00:00
7:00 AM,19.4,14.0,80,30.57,20.0,NNE,3.5,-,N/A,,Partly Cloudy,20,2012-11-19 12:00:00
8:00 AM,23.0,15.8,74,30.57,15.0,NNE,4.6,-,N/A,,Partly Cloudy,30,2012-11-19 13:00:00
9:00 AM,26.6,19.4,74,30.55,12.0,NNE,3.5,-,N/A,,Partly Cloudy,30,2012-11-19 14:00:00
10:00 AM,32.0,21.2,64,30.54,12.0,NE,4.6,-,N/A,,Partly Cloudy,50,2012-11-19 15:00:00
11:00 AM,35.6,19.4,52,30.52,15.0,East,4.6,-,N/A,,Clear,90,2012-11-19 16:00:00
12:00 PM,37.4,19.4,48,30.48,15.0,NNE,4.6,-,N/A,,Partly Cloudy,30,2012-11-19 17:00:00
1:00 PM,41.0,21.2,45,30.46,15.0,Calm,Calm,-,N/A,,Partly Cloudy,0,2012-11-19 18:00:00
2:00 PM,41.0,23.0,49,30.43,15.0,Calm,Calm,-,N/A,,Partly Cloudy,0,2012-11-19 19:00:00
3:00 PM,42.8,24.8,49,30.41,12.0,Calm,Calm,-,N/A,,Partly Cloudy,0,2012-11-19 20:00:00
4:00 PM,39.2,23.0,52,30.40,15.0,SSE,2.3,-,N/A,,Partly Cloudy,160,2012-11-19 21:00:00
5:00 PM,33.8,23.0,65,30.40,15.0,Calm,Calm,-,N/A,,Partly Cloudy,0,2012-11-19 22:00:00
6:00 PM,32.0,23.0,69,30.39,15.0,Calm,Calm,-,N/A,,Partly Cloudy,0,2012-11-19 23:00:00
7:00 PM,28.4,21.2,74,30.38,15.0,NNW,2.3,-,N/A,,Partly Cloudy,330,2012-11-20 00:00:00
8:00 PM,28.4,21.2,74,30.36,15.0,Calm,Calm,-,N/A,,Partly Cloudy,0,2012-11-20 01:00:00
9:00 PM,24.8,19.4,80,30.35,15.0,Calm,Calm,-,N/A,,Clear,0,2012-11-20 02:00:00
10:00 PM,24.8,19.4,80,30.33,15.0,NNE,2.3,-,N/A,,Clear,20,2012-11-20 03:00:00
11:00 PM,24.8,21.2,86,30.30,15.0,Calm,Calm,-,N/A,,Clear,0,2012-11-20 04:00:00